Location: Peterborough
(44.3091°N, 78.3197°W)
Time: 03:02:45
(UTC-04:00)

S-56A Canister/Altair - Pass Details

Date: 25 March 2023
Orbit: 639 x 2492 km, 38.9° (Epoch: 08 June)

Event Time Altitude Azimuth Distance (km) Brightness Sun altitude
Rises 21:52:54 0° 257° (WSW) 5,299 12.5 -24.8°
Reaches altitude 10° 21:56:03 10° 255° (WSW) 4,503 12.0 -25.3°
Maximum altitude 22:09:08 71° 176° (S) 2,530 9.8 -27.3°
Enters shadow 22:16:06 39° 106° (ESE) 3,325 10.2 -28.3°
Drops below altitude 10° 22:24:08 10° 97° (E) 5,080 - -29.4°
Sets 22:27:55 0° 95° (E) 5,989 - -30.0°
